Flag Weather past 2 weeks in Kelowna, British Columbia, Canada

Now
46 °F

Light rain. Overcast.


Feels Like: 45 °F
Forecast: 40 / 54 °F
Wind: 3 mph from North

Location: Kelowna Airport

Current Time: Oct 31, 2014 at 1:02:16 AM

Latest Report: Oct 31, 2014 at 12:03 AM


Visibility: 9 mi

Pressure: 29.81 "Hg

Humidity: 93%

Dew point: 45 °F

Location of KelownaLocation

Historic Weather in Kelowna — Graph

°F

Kelowna temperature yesterday

Maximum temperature yesterday: 52 °F (at 12:00 PM)
Minimum temperature yesterday: 41 °F (at 5:46 AM)
Average temperature yesterday: 47 °F

Past Weeks' High & Low Weather Summary

 TemperatureHumidityPressure
High64 °F (Oct 19, 4:00 PM)100% (Oct 16, 3:00 AM)30.19 "Hg (Oct 16, 3:00 AM)
Low32 °F (Oct 24, 6:00 AM)47% (Oct 26, 9:00 AM)29.39 "Hg (Oct 25, 10:02 PM)
Average48 °F82%29.90 "Hg
* Reported Midnight between Oct 15 and Oct 16 — Oct 31 12:03 AM, Kelowna, Weather by CustomWeather, © 2014

Note: Actual official high and low records may vary slightly from our data, if they occured in-between our weather recording intervals... More about our weather records

Advertising

Kelowna weather history for previous 24 hours

 ConditionsComfort  
Time TempWeatherWind HumidityBarometerVisibility
12:03 AM
Oct 31
46 °FLight rain. Overcast.3 mph93%29.81 "Hg9 mi
11:00 PM
Oct 30
46 °FMostly cloudy.5 mph93%29.82 "Hg9 mi
10:00 PM48 °FPassing clouds.3 mph87%29.83 "Hg9 mi
9:00 PM48 °FMostly cloudy.2 mph87%29.85 "Hg9 mi
8:54 PM48 °FMostly cloudy.No wind87%29.86 "Hg9 mi
8:00 PM48 °FOvercast.No wind87%29.88 "Hg9 mi
7:00 PM48 °FLight rain. Overcast.2 mph87%29.89 "Hg9 mi
6:53 PM50 °FLight rain. Overcast.2 mph82%29.89 "Hg9 mi
6:00 PM48 °FOvercast.No wind87%29.90 "Hg9 mi
5:00 PM50 °FLight rain. Overcast.No wind76%29.90 "Hg9 mi
4:00 PM52 °FMostly cloudy.No wind72%29.94 "Hg9 mi
3:00 PM52 °FOvercast.2 mph72%29.96 "Hg9 mi
2:00 PM52 °FOvercast.2 mph72%29.98 "Hg9 mi
1:00 PM50 °FOvercast.7 mph76%30.03 "Hg9 mi
12:00 PM52 °FOvercast.No wind72%30.05 "Hg9 mi
11:00 AM50 °FPartly sunny.2 mph76%30.07 "Hg9 mi
10:00 AM46 °FPartly sunny.No wind87%30.09 "Hg9 mi
9:00 AM45 °FOvercast.2 mph93%30.11 "Hg9 mi
8:00 AM43 °FOvercast.2 mph100%30.13 "Hg9 mi
7:00 AM43 °FOvercast.5 mph93%30.14 "Hg9 mi
6:00 AM41 °FPartly cloudy.3 mph93%30.14 "Hg9 mi
5:46 AM41 °FMostly cloudy.No wind93%30.14 "Hg7 mi
5:00 AM43 °FMostly cloudy.2 mph93%30.15 "Hg9 mi
4:00 AM45 °FPassing clouds.3 mph93%30.16 "Hg9 mi
3:00 AM45 °FPassing clouds.2 mph93%30.18 "Hg9 mi
2:00 AM48 °FOvercast.5 mph87%30.18 "Hg9 mi
1:00 AM45 °FOvercast.5 mph93%30.18 "Hg9 mi
Weather by CustomWeather, © 2014

See weather overviewHow to use our weather pages